Laurent Verva

Laurent Verva

Statistiques 2026

  • Courses courues : 42
  • Nb de victoires : -
  • Nb de places : 1
  • Écart gagnant : 143
  • Réussite à la gagne : -
  • Réussite à la place : 2%
Musique : 0a 8a 4a 6a 6a 0a 5a 5a Da 2a 9a 6a 5a Da 6a 0a 7a 4a
DateRangCatégorieAlloc.Dist.HippodromeChevalRed. KmSpé.
02/10/16 D Trot 12 000€ 2 625m Saint Omer Dandy du Rosay Attelé
02/10/16 8 Trot 12 000€ 2 625m Saint Omer Destin de Bougy 1'23"2 Attelé
02/10/16 D Trot 12 000€ 2 650m Saint Omer Cannelle du Loisir Attelé
02/10/16 6 Trot 12 000€ 2 625m Saint Omer Dryade des Salines 1'23"3 Attelé
02/10/16 0 Trot 12 000€ 2 650m Saint Omer Calife des Salines Attelé
02/10/16 D Trot 12 000€ 2 650m Saint Omer Cedre de la Vallee Attelé
08/10/16 1 Trot 15 000€ 2 400m Amiens Diego du Houlet 1'18"3 Attelé
08/10/16 1 Trot 16 000€ 2 400m Amiens Balladine d'Alci 1'16"3 Attelé
08/10/16 D Trot 15 000€ 2 400m Amiens Cristiano d'Arc Attelé
08/10/16 4 Trot 17 000€ 2 900m Amiens Aline de Touchyvon 1'16"7 Attelé
09/10/16 6 Trot 21 000€ 2 850m Mauquenchy Chtite Gamine 1'18"3 Attelé lire

A figuré sans pouvoir changer de rythme dans la phase finale.

09/10/16 2 Trot 21 000€ 2 875m Mauquenchy Cannelle d'As 1'17"9 Attelé lire

Après avoir figuré, a rejoint les animateurs aux tribunes, avant de s'incliner dans les cent derniers mètres.

09/10/16 3 Trot 23 000€ 2 850m Mauquenchy Beauvaisienne 1'16"7 Attelé lire

Très vite à la pointe du combat, a conclu de bonne manière en dedans mais sans inquiéter le duo de tête.

09/10/16 6 Trot 22 000€ 2 875m Mauquenchy Anakin Skywalker 1'16"5 Attelé lire

Attentiste en queue de peloton, a comblé du terrain tout au long de la ligne droite.

09/10/16 D Trot 30 000€ 2 850m Mauquenchy Un Bon Fils Attelé lire

Après avoir figuré, a cédé en face puis a été sanctionné.

10/10/16 4 Trot 15 000€ 2 825m Le Croise Laroche Duc des Clerbosq 1'18"3 Attelé
10/10/16 5 Trot 25 000€ 2 825m Le Croise Laroche Cocktail de Tyrole 1'15"7 Attelé
10/10/16 1 Trot 18 000€ 2 825m Le Croise Laroche Bilingue d'Alci 1'15"4 Attelé
13/10/16 5 Trot 38 000€ 2 150m Enghien Soisy Calba du Pont 1'16"9 Attelé lire

Longtemps en retrait, a gagné du terrain pour finir mais, sans inquiéter les premières.

15/10/16 7 Trot 28 000€ 2 850m Cabourg Cristiano d'Arc 1'17"5 Attelé
16/10/16 3 Trot 12 000€ 2 650m Laon Dapril de Navary 1'21"0 Attelé
16/10/16 3 Trot 12 000€ 2 650m Laon Destin de Bougy 1'22"1 Attelé
16/10/16 8 Trot 12 000€ 2 850m Laon Carina Danica 1'22"4 Attelé
16/10/16 4 Trot 12 000€ 2 875m Laon Cora Bell 1'19"8 Attelé
16/10/16 4 Trot 12 000€ 2 650m Laon Dragonera 1'21"8 Attelé
16/10/16 0 Trot 12 000€ 2 875m Laon Cassius du Rosay Attelé
16/10/16 D Trot 12 000€ 2 850m Laon Creon du Goutier Attelé
19/10/16 8 Trot 23 000€ 2 575m Reims Venus du Rosay 1'15"8 Attelé
19/10/16 6 Trot 20 000€ 2 600m Reims Brenilyse 1'17"3 Attelé
19/10/16 0 Trot 20 000€ 2 600m Reims Cocktail de Tyrole Attelé
20/10/16 0 Trot 23 000€ 2 850m Mauquenchy Bijou du Rez Attelé
20/10/16 5 Trot 20 000€ 2 850m Mauquenchy Diego du Houlet 1'18"0 Attelé
21/10/16 5 Trot 21 000€ 2 400m Amiens Banana Star 1'17"9 Attelé
21/10/16 3 Trot 20 000€ 2 400m Amiens Charly d'Ommeel 1'18"5 Attelé
21/10/16 1 Trot 20 000€ 2 400m Amiens Divine Lynole 1'18"5 Attelé
21/10/16 6 Trot 16 000€ 2 400m Amiens Elujeni 1'20"2 Attelé
23/10/16 2 Trot 15 000€ 2 750m La Capelle Dulcinee d'Arbaz 1'18"9 Attelé
23/10/16 6 Trot 18 000€ 2 750m La Capelle Beauvaisienne 1'16"9 Attelé
23/10/16 2 Trot 32 000€ 2 775m La Capelle Chiquito d'Arc 1'16"7 Attelé
23/10/16 D Trot 26 000€ 2 750m La Capelle Djedje Nathanpi Attelé
23/10/16 6 Trot 15 000€ 2 700m La Capelle Cedre de la Vallee 1'17"6 Attelé
23/10/16 0 Trot 15 000€ 2 700m La Capelle California Quick Attelé
24/10/16 8 Trot 42 000€ 2 875m Enghien Soisy Cybele des Peria 1'18"2 Attelé lire

Une des animatrices en dehors, a cédé dans le tournant final.

30/10/16 1 Trot 12 000€ 2 850m Mauquenchy Dorlic du Palais 1'20"4 Attelé
30/10/16 D Trot 12 000€ 2 850m Mauquenchy Doublet du But Attelé
30/10/16 6 Trot 12 000€ 2 850m Mauquenchy Diva Fromentro 1'20"2 Attelé
30/10/16 6 Trot 12 000€ 2 850m Mauquenchy Dabra 1'21"3 Attelé
30/10/16 1 Trot 12 000€ 2 850m Mauquenchy Cristal du Pont 1'18"0 Attelé
30/10/16 5 Trot 12 000€ 2 850m Mauquenchy Chene de la Criere 1'18"0 Attelé
31/10/16 2 Trot 16 000€ 2 700m Le Croise Laroche Charly d'Ommeel 1'16"4 Attelé